Weather History for KHUM - October, 2012

Change the Weather History Date:

Friday, October 26, 2012

  Actual Average Record
Temperature  
Mean Temperature 72 °F -  
Max Temperature 82 °F 77 °F 89 °F (1939)
Min Temperature 60 °F 54 °F 38 °F (1943)
Cooling Degree Days 6    
Growing Degree Days 22 (Base 50)    
Moisture  
Dew Point 64 °F    
Average Humidity 89    
Maximum Humidity 100    
Minimum Humidity 51    
Precipitation  
Precipitation 0.00 in - - ()
Sea Level Pressure  
Sea Level Pressure 29.95 in    
Wind  
Wind Speed 3 mph (NNW)    
Max Wind Speed 14 mph    
Max Gust Speed 22 mph    
Visibility 4 miles    
Events Fog , Rain    
Averages and records for this station are not official NWS values.
T = Trace of Precipitation, MM = Missing Value Source: NWS Daily Summary

Daily Weather History Graph

Daily Weather History Graph

Search for Another Location

Airport or City:

Trip Planner

Search our weather history database for the weather conditions in past years. The results will help you decide how hot, cold, wet, or windy it might be!

Date:

Astronomy

Oct. 26, 2012 Rise Set
Actual Time 7:11 AM CDT 6:20 PM CDT
Civil Twilight 6:47 AM CDT 6:45 PM CDT
Nautical Twilight 6:19 AM CDT 7:13 PM CDT
Astronomical Twilight 5:51 AM CDT 7:40 PM CDT
Moon 4:27 PM CDT (10/26) 4:19 AM CDT (10/26)
Length of Visible Light 11h 57m
Length of Day
11h 08m
Waxing Gibbous, 91% of the Moon is Illuminated
Oct 26
Waxing Gibbous
Oct 29
Full
Nov 6
Last Quarter
Nov 13
New
Nov 20
First Quarter

Hourly Weather History & Observations

Time (CDT) Temp. Heat Index Dew Point Humidity Pressure Visibility Wind Dir Wind Speed Gust Speed Precip Events Conditions
12:55 AM 65.7 °F - 65.7 °F 100% 29.94 in 0.2 mi Calm Calm - N/A Fog Fog
1:15 AM 64.0 °F - 64.0 °F 100% 29.94 in 0.2 mi Calm Calm - N/A Fog Fog
1:35 AM 63.5 °F - 63.5 °F 100% 29.94 in 0.2 mi Calm Calm - N/A Fog Fog
1:55 AM 63.7 °F - 63.7 °F 100% 29.94 in 0.2 mi Calm Calm - N/A Fog Fog
2:15 AM 64.0 °F - 64.0 °F 100% 29.93 in 0.2 mi Calm Calm - N/A Fog Fog
2:35 AM 63.3 °F - 63.3 °F 100% 29.93 in 0.2 mi Calm Calm - N/A Fog Fog
2:55 AM 63.5 °F - 63.5 °F 100% 29.93 in 0.2 mi Calm Calm - N/A Fog Fog
3:15 AM 63.7 °F - 63.7 °F 100% 29.93 in 0.2 mi Calm Calm - N/A Rain Heavy Rain
3:35 AM 63.0 °F - 63.0 °F 100% 29.93 in 0.2 mi Calm Calm - N/A Rain Heavy Rain
3:55 AM 63.3 °F - 63.3 °F 100% 29.93 in 0.2 mi Calm Calm - N/A Rain Heavy Rain
4:15 AM 63.7 °F - 63.7 °F 100% 29.93 in 0.2 mi North 3.5 mph - N/A Rain Heavy Rain
4:35 AM 62.8 °F - 62.8 °F 100% 29.93 in 0.2 mi Calm Calm - N/A Rain Heavy Rain
4:55 AM 62.6 °F - 62.6 °F 100% 29.94 in 0.2 mi Calm Calm - N/A Rain Heavy Rain
5:15 AM 62.6 °F - 62.6 °F 100% 29.93 in 0.2 mi Calm Calm - N/A Rain Heavy Rain
5:35 AM 62.8 °F - 62.8 °F 100% 29.93 in 0.5 mi Calm Calm - N/A Rain Heavy Rain
5:55 AM 62.1 °F - 62.1 °F 100% 29.93 in 0.2 mi Calm Calm - N/A Rain Heavy Rain
6:50 AM 62.6 °F - 62.6 °F 100% 29.95 in 0.2 mi Calm Calm - N/A Fog Fog
7:50 AM 64.4 °F - 64.4 °F 100% 29.97 in 0.1 mi Calm Calm - N/A Fog Fog
8:50 AM 66.2 °F - 66.2 °F 100% 30.00 in 0.1 mi North 3.5 mph - N/A Fog Fog
9:20 AM 66.2 °F - 66.2 °F 100% 30.00 in 0.8 mi North 3.5 mph - N/A Fog Fog
9:50 AM 69.8 °F - 69.8 °F 100% 30.00 in 5.0 mi North 6.9 mph - N/A   Mostly Cloudy
10:50 AM 73.4 °F - 73.4 °F 100% 30.00 in 7.0 mi NE 5.8 mph - N/A   Partly Cloudy
11:55 AM 78.8 °F - 69.8 °F 74% 29.99 in 7.0 mi NE 5.8 mph - N/A   Partly Cloudy
12:50 PM 80.6 °F 82.3 °F 64.4 °F 58% 29.97 in 7.0 mi NNE 9.2 mph - N/A   Scattered Clouds
1:50 PM 82.4 °F 83.9 °F 64.4 °F 54% 29.94 in 7.0 mi North 9.2 mph - N/A   Scattered Clouds
2:50 PM 82.4 °F 83.4 °F 62.6 °F 51% 29.93 in 7.0 mi North 9.2 mph - N/A   Scattered Clouds
3:50 PM 82.4 °F 83.9 °F 64.4 °F 54% 29.92 in 7.0 mi North 11.5 mph - N/A   Scattered Clouds
4:50 PM 80.6 °F 82.3 °F 64.4 °F 58% 29.91 in 7.0 mi North 6.9 mph - N/A   Clear
5:50 PM 78.8 °F - 64.4 °F 61% 29.91 in 7.0 mi North 6.9 mph - N/A   Clear
6:50 PM 71.6 °F - 66.2 °F 83% 29.93 in 7.0 mi Calm Calm - N/A   Clear
7:15 PM 70.5 °F - 65.5 °F 84% 29.93 in 10.0 mi Calm Calm - N/A   Clear
7:35 PM 70.9 °F - 65.5 °F 83% 29.94 in 10.0 mi Calm Calm - N/A   Clear
7:55 PM 69.8 °F - 66.0 °F 88% 29.95 in 7.0 mi NW 5.8 mph - N/A   Mostly Cloudy
8:15 PM 74.3 °F - 66.7 °F 77% 29.95 in 7.0 mi NNW 4.6 mph - N/A   Overcast
8:35 PM 73.6 °F - 68.4 °F 84% 29.96 in 10.0 mi NNW 9.2 mph - N/A   Overcast
8:55 PM 72.3 °F - 68.4 °F 87% 29.97 in 10.0 mi NW 9.2 mph - N/A Rain Light Rain
9:35 PM 68.2 °F - 63.9 °F 86% 29.99 in 10.0 mi NW 13.8 mph 20.7 mph N/A   Overcast
9:55 PM 66.4 °F - 62.6 °F 88% 29.99 in 10.0 mi NW 10.4 mph 21.9 mph N/A   Mostly Cloudy
10:15 PM 65.3 °F - 61.9 °F 89% 29.99 in 10.0 mi NW 10.4 mph 17.3 mph N/A   Scattered Clouds
10:35 PM 64.4 °F - 60.8 °F 88% 29.99 in 10.0 mi NW 12.7 mph 19.6 mph N/A   Clear
10:55 PM 63.3 °F - 60.1 °F 89% 30.00 in 10.0 mi NW 11.5 mph 16.1 mph N/A   Clear
11:15 PM 61.7 °F - 58.3 °F 89% 30.00 in 7.0 mi NW 12.7 mph - N/A   Clear
11:35 PM 60.8 °F - 57.6 °F 89% 30.00 in 10.0 mi NNW 13.8 mph 21.9 mph N/A   Clear